Wind_Speed
82 77 79 81 78 72 68 67 66 67 67 68 64 64 62 64 67 67 64 69 70 70 70 68 70 70 69 70 71 74 74 74 77 78 79 76 74 74 70 70 70 70 66 64
76 76 76 72 72 72 71 71 68 70 67 63 64 61 63 68 65 65 64 67 67 67 68 70 71 74 74 75 77 80 84 85 84 88 91 90 85 86 83 82 82 80 80 76
77 79 74 71 69 66 66 60 61 66 70 71 73 63 67 63 66 65 68 65 68 69 71 73 76 79 81 83 85 88 92 94 95 90 97 99 101 100 98 94 92 92 91 90
73 73 70 67 67 68 66 70 70 70 70 70 70 63 70 71 68 70 70 71 72 75 74 70 70 73 78 83 86 90 95 101 105 106 103 103 104 105 107 105 101 95 97 95
74 74 77 73 77 78 81 86 82 77 75 76 77 76 57 81 78 80 78 79 81 82 80 75 77 81 85 86 87 93 102 102 104 111 112 115 114 108 106 100 105 104 102 100
77 77 75 81 81 82 83 80 79 78 80 78 82 86 73 87 83 82 77 74 75 80 88 90 90 90 93 97 100 103 105 110 116 122 110 110 116 114 111 109 107 104 107 105
78 81 77 81 82 81 84 85 86 86 87 84 91 92 81 86 93 90 90 90 87 91 93 91 90 94 98 100 108 109 109 121 125 121 117 114 110 112 118 118 111 109 109 104
82 83 83 79 83 84 86 90 92 91 92 93 94 99 88 95 103 95 92 88 92 94 97 101 105 106 108 114 115 123 123 125 118 118 120 119 119 120 123 123 118 115 111 110
81 85 81 80 84 88 92 93 95 96 95 99 91 92 89 99 105 98 99 98 102 105 105 106 106 115 127 123 130 136 134 121 115 113 118 119 117 121 128 125 125 117 118 113
86 89 84 84 87 91 95 95 93 98 102 102 92 91 92 104 108 105 108 103 108 108 108 113 120 132 131 138 139 142 135 119 110 102 104 106 102 105 110 118 116 116 119 112
89 89 91 90 92 97 100 95 98 102 101 99 101 97 102 107 110 116 115 121 115 111 119 124 132 137 140 145 148 138 128 114 107 95 85 91 91 94 100 106 114 107 98 100
92 99 99 99 99 96 97 99 98 102 98 104 108 95 103 113 113 118 123 121 121 124 131 138 145 147 150 148 149 122 116 108 102 80 68 65 67 73 87 99 101 97 100 97
94 96 102 100 95 94 89 94 100 101 105 101 109 104 109 116 121 124 121 124 132 140 143 150 150 149 153 149 131 114 110 102 82 69 63 54 51 51 58 67 76 86 84 86
97 101 102 91 92 92 94 103 102 106 108 114 113 114 108 118 119 118 128 138 140 146 151 151 154 153 148 123 122 108 100 83 69 55 51 37 37 39 41 47 55 60 54 52
96 98 98 101 97 101 110 109 110 110 108 115 116 122 122 120 127 133 141 145 148 152 154 158 153 131 122 119 101 91 77 67 53 46 31 27 28 34 27 33 37 39 32 35
96 101 102 105 109 108 109 114 107 108 115 121 129 126 130 133 131 134 142 147 149 151 154 146 129 123 110 87 78 73 63 53 46 42 33 32 28 31 28 24 24 26 25 36
104 102 102 105 110 108 105 107 116 122 127 132 129 133 140 139 141 146 154 157 157 152 141 134 127 95 79 73 68 59 54 43 40 34 28 23 24 17 9 4 8 18 20 22
108 111 110 109 110 112 116 121 127 133 134 138 138 140 143 149 149 153 155 159 153 138 134 128 103 71 72 64 57 49 45 41 40 36 30 28 34 26 22 20 18 24 33 18
117 120 124 124 120 123 127 132 132 135 138 144 145 148 149 148 150 154 153 138 134 130 125 95 81 63 59 49 44 40 41 47 46 37 38 40 49 37 35 30 24 26 35 42
127 126 124 122 125 126 132 137 139 142 138 147 149 152 153 152 152 141 134 133 128 119 95 78 66 57 50 41 38 39 36 53 51 51 59 56 48 47 44 40 48 41 46 45
132 130 129 131 136 131 138 146 145 141 147 149 150 151 152 150 135 128 123 122 105 93 79 68 54 47 43 37 35 36 37 51 57 56 70 66 64 51 53 53 55 48 54 58
139 136 138 139 140 140 140 143 147 150 149 147 150 149 147 136 126 116 103 94 86 80 69 60 50 42 34 33 36 37 39 45 65 60 68 64 63 60 60 58 65 57 51 63
144 142 142 141 144 145 143 145 146 146 146 153 152 155 131 120 115 95 90 81 75 68 62 54 47 39 30 29 32 34 40 48 64 63 70 66 65 62 60 56 60 63 57 55
142 146 144 143 141 144 142 143 146 151 147 143 130 121 113 107 92 85 81 73 65 60 54 48 39 32 29 28 28 35 42 51 60 73 76 73 71 68 72 69 68 67 64 65
146 145 148 144 141 144 146 144 138 138 134 123 114 102 100 85 82 77 69 63 58 52 46 39 33 32 29 27 27 33 41 51 64 80 80 78 75 74 78 72 73 73 72 69
144 149 148 145 147 143 140 139 128 120 112 101 94 89 85 73 70 65 60 55 49 46 40 34 31 31 25 25 26 31 38 47 62 80 88 85 81 85 88 85 85 78 78 81
Wind_Direction
269 273 274 274 275 274 273 273 276 282 283 283 278 275 279 278 282 288 287 286 292 293 290 281 281 281 279 279 279 279 279 277 280 282 279 273 273 271 269 270 269 270 270 274
270 271 272 273 275 274 275 277 278 276 277 274 272 279 283 283 286 283 283 288 290 285 279 284 286 287 288 289 288 287 286 284 281 284 283 282 278 275 272 270 270 268 270 266
269 270 271 273 276 276 275 271 266 269 269 269 269 275 277 278 275 277 281 284 281 278 278 281 284 285 285 287 289 289 288 288 284 279 279 280 281 280 278 276 274 271 271 270
267 272 272 275 275 268 266 262 267 272 274 276 279 280 281 276 277 278 282 278 275 277 280 285 288 292 292 292 294 296 297 294 292 293 293 288 285 280 279 279 276 274 275 274
267 267 265 264 265 266 269 274 277 277 279 281 286 286 278 276 276 281 279 278 279 275 272 278 285 289 294 294 292 297 300 298 295 296 293 292 291 289 287 285 282 280 278 275
265 262 263 265 264 267 269 272 274 276 277 280 283 282 283 280 282 281 281 281 281 280 276 275 273 276 283 291 295 298 299 298 296 296 290 287 287 285 284 283 283 282 282 280
261 264 263 267 270 271 274 275 276 277 282 284 284 285 288 277 280 281 279 278 279 280 284 287 289 289 289 292 295 294 293 295 294 291 287 283 280 279 279 280 280 279 280 279
263 263 263 265 272 274 276 278 280 282 284 285 285 285 283 281 282 280 280 279 282 286 287 286 289 294 296 297 296 296 293 294 290 285 283 281 276 273 273 273 274 277 276 274
261 262 264 269 272 275 276 277 279 282 282 284 286 285 285 284 285 289 293 289 284 286 293 291 292 293 298 299 300 301 297 291 282 279 278 277 274 273 272 270 270 271 272 271
267 269 268 269 271 273 278 281 282 284 287 288 292 289 285 290 294 291 294 295 294 295 292 292 294 298 301 302 303 301 296 291 289 286 281 280 275 273 271 267 268 270 266 267
267 270 273 274 275 277 281 282 283 287 289 288 290 293 293 290 293 295 296 297 296 289 294 294 299 300 301 304 305 300 297 295 298 291 278 276 273 267 265 263 263 266 261 263
269 270 272 277 279 278 277 282 283 284 285 286 289 293 289 291 292 295 298 298 296 295 297 299 299 301 302 302 302 299 299 300 298 293 284 273 266 259 258 258 258 258 260 261
268 267 274 276 274 274 279 280 281 280 283 285 286 293 289 289 293 294 294 293 296 297 298 301 302 302 301 303 303 302 300 297 290 288 282 274 265 256 253 252 255 255 257 256
270 272 276 274 273 270 271 280 282 282 284 284 290 289 289 289 290 288 291 296 296 296 299 301 301 303 302 304 301 297 294 290 286 282 274 257 254 254 253 251 250 245 248 248
269 269 271 273 274 271 278 279 282 284 282 282 286 287 288 287 289 292 295 295 296 298 300 300 300 304 305 303 295 291 286 284 280 266 242 233 260 246 255 247 250 236 225 228
264 269 274 275 279 278 276 280 279 279 283 284 288 287 288 293 294 293 295 296 298 301 301 301 302 304 302 294 289 284 281 277 266 255 225 227 236 246 246 254 242 213 211 232
263 266 273 273 276 275 278 276 280 282 285 287 291 288 290 293 294 294 296 298 301 301 300 302 306 301 289 290 284 278 274 262 254 235 211 222 231 239 172 163 242 197 197 225
261 263 268 271 272 273 276 277 279 282 286 288 290 290 291 293 294 294 297 299 299 299 300 302 302 294 285 282 277 271 262 242 231 206 206 216 231 208 202 218 227 194 213 198
262 265 267 269 273 273 276 275 279 280 283 286 287 289 292 293 295 298 299 298 297 297 300 301 296 293 282 277 269 260 253 224 218 198 204 196 203 203 193 210 218 216 196 221
265 267 268 270 271 273 275 276 277 281 283 285 286 288 291 294 299 299 297 296 295 297 298 295 297 289 280 271 263 254 246 217 214 194 186 196 209 199 199 193 215 203 211 205
265 266 268 270 272 274 277 279 278 281 283 286 286 289 294 297 297 297 297 296 296 295 296 297 292 285 278 269 256 248 237 218 215 208 194 204 213 211 208 210 210 206 224 217
265 266 269 269 273 274 276 278 280 281 285 287 291 295 295 295 296 298 296 293 293 293 295 293 289 281 272 261 252 243 232 222 214 216 201 205 216 217 211 217 219 226 232 233
265 268 270 273 275 276 278 279 281 285 286 288 291 294 293 296 293 294 294 292 291 291 290 288 284 277 270 262 251 240 224 220 214 214 201 207 207 210 216 220 219 229 226 223
265 269 272 273 274 278 280 282 283 286 288 290 291 293 293 292 293 295 292 289 289 288 285 283 281 282 279 265 245 232 216 217 213 209 202 202 214 214 214 216 226 230 226 230
269 270 272 276 278 281 283 285 287 287 288 289 292 292 290 292 295 289 288 287 285 284 280 279 281 283 279 264 243 226 220 210 209 206 203 204 211 214 214 221 217 219 224 234
267 271 275 277 279 282 283 286 285 287 286 286 289 288 290 294 286 285 284 282 281 279 275 278 282 283 272 254 236 224 217 214 207 206 205 211 217 219 223 224 224 224 225 228
Height
10712 10714 10713 10713 10713 10712 10712 10714 10715 10713 10715 10718 10715 10708 10702 10699 10700 10701 10697 10690 10692 10689 10685 10678 10677 10674 10674 10672 10668 10666 10663 10662 10656 10653 10652 10652 10649 10649 10650 10649 10648 10651 10655 10653
10702 10700 10696 10699 10699 10698 10697 10699 10702 10704 10701 10705 10704 10705 10687 10682 10684 10682 10683 10684 10684 10679 10670 10668 10666 10661 10657 10654 10652 10648 10644 10642 10644 10635 10629 10629 10633 10632 10632 10631 10632 10632 10632 10635
10684 10680 10685 10684 10682 10682 10682 10684 10686 10690 10687 10690 10691 10705 10673 10675 10665 10669 10669 10672 10668 10664 10661 10659 10655 10650 10645 10638 10633 10627 10621 10614 10612 10625 10610 10608 10607 10608 10609 10610 10612 10611 10612 10613
10670 10667 10670 10668 10669 10667 10671 10669 10674 10672 10673 10673 10674 10695 10660 10653 10657 10659 10664 10659 10651 10645 10641 10637 10635 10633 10630 10623 10617 10611 10603 10595 10586 10581 10577 10577 10575 10580 10581 10580 10584 10591 10589 10591
10656 10656 10653 10663 10656 10653 10658 10652 10654 10654 10654 10658 10660 10663 10698 10633 10645 10648 10650 10647 10642 10637 10629 10621 10616 10612 10607 10603 10601 10597 10588 10577 10568 10558 10559 10546 10544 10541 10539 10543 10546 10549 10554 10558
10636 10636 10643 10635 10642 10641 10638 10636 10634 10635 10635 10647 10642 10638 10678 10609 10626 10628 10627 10623 10620 10615 10608 10606 10604 10599 10592 10587 10581 10575 10569 10560 10549 10535 10535 10530 10520 10512 10509 10513 10515 10514 10517 10522
10617 10616 10627 10626 10621 10623 10619 10617 10614 10617 10616 10628 10615 10620 10646 10610 10596 10608 10609 10606 10599 10592 10592 10586 10580 10578 10576 10569 10561 10552 10546 10538 10524 10511 10504 10503 10496 10488 10486 10483 10484 10486 10490 10492
10603 10603 10606 10615 10604 10599 10601 10596 10595 10594 10596 10601 10606 10601 10620 10590 10569 10588 10588 10583 10573 10572 10568 10562 10556 10549 10543 10539 10532 10526 10517 10506 10491 10480 10468 10465 10465 10460 10458 10461 10460 10459 10463 10466
10584 10579 10591 10594 10588 10583 10580 10582 10577 10576 10578 10572 10594 10584 10588 10560 10549 10557 10555 10551 10551 10547 10543 10536 10530 10523 10519 10504 10489 10473 10466 10456 10454 10447 10433 10424 10428 10423 10427 10427 10431 10435 10436 10440
10563 10561 10573 10574 10570 10566 10560 10563 10558 10555 10554 10548 10570 10565 10558 10537 10527 10532 10530 10526 10522 10520 10515 10509 10500 10488 10477 10460 10447 10431 10411 10410 10407 10403 10394 10384 10389 10389 10389 10392 10404 10406 10409 10413
10547 10546 10547 10554 10551 10546 10545 10540 10537 10535 10534 10526 10534 10554 10532 10521 10507 10495 10498 10493 10489 10485 10484 10475 10467 10458 10444 10425 10410 10393 10374 10367 10358 10352 10349 10343 10346 10351 10355 10361 10368 10376 10381 10387
10532 10528 10527 10529 10529 10531 10525 10522 10518 10515 10510 10507 10503 10536 10509 10488 10488 10477 10466 10457 10452 10450 10444 10436 10428 10418 10409 10392 10371 10356 10340 10332 10322 10318 10316 10311 10312 10314 10320 10331 10339 10347 10353 10360
10513 10508 10507 10505 10511 10513 10507 10503 10498 10493 10492 10490 10478 10504 10488 10468 10464 10455 10443 10436 10426 10418 10411 10401 10391 10381 10364 10349 10332 10321 10309 10305 10300 10298 10293 10289 10289 10292 10297 10306 10316 10325 10330 10337
10490 10490 10488 10481 10486 10492 10486 10483 10477 10474 10471 10463 10462 10455 10469 10452 10438 10431 10421 10412 10400 10389 10377 10366 10353 10347 10328 10311 10299 10293 10286 10281 10281 10277 10276 10275 10277 10278 10284 10288 10295 10305 10312 10321
10471 10471 10468 10463 10463 10468 10467 10461 10454 10453 10451 10439 10445 10426 10428 10426 10422 10408 10396 10382 10369 10361 10346 10329 10317 10308 10296 10282 10271 10266 10266 10263 10265 10264 10265 10267 10268 10271 10275 10281 10284 10291 10300 10311
10452 10449 10449 10446 10440 10441 10446 10438 10427 10423 10418 10413 10414 10413 10388 10393 10388 10372 10365 10351 10337 10326 10310 10294 10286 10281 10266 10255 10249 10246 10246 10247 10248 10250 10255 10260 10262 10267 10272 10277 10282 10287 10296 10306
10433 10431 10429 10427 10423 10421 10428 10417 10405 10399 10393 10383 10384 10382 10371 10364 10356 10341 10328 10314 10303 10286 10270 10266 10263 10252 10239 10232 10227 10229 10228 10232 10235 10237 10248 10254 10256 10264 10269 10272 10279 10285 10294 10307
10410 10408 10408 10405 10403 10404 10403 10395 10384 10379 10372 10358 10356 10351 10345 10336 10328 10311 10296 10281 10269 10256 10246 10244 10236 10228 10215 10213 10209 10212 10213 10218 10224 10228 10239 10244 10251 10260 10263 10269 10274 10276 10292 10294
10389 10386 10383 10384 10381 10385 10382 10369 10372 10361 10356 10334 10332 10326 10315 10307 10302 10293 10270 10251 10239 10231 10222 10221 10212 10207 10196 10195 10193 10194 10198 10204 10213 10221 10231 10235 10241 10252 10253 10257 10263 10272 10279 10290
10365 10362 10360 10361 10356 10362 10355 10347 10344 10335 10342 10320 10312 10297 10292 10283 10277 10264 10245 10228 10215 10204 10199 10197 10192 10183 10179 10177 10177 10180 10187 10192 10199 10207 10215 10224 10231 10241 10244 10251 10255 10264 10270 10276
10338 10337 10336 10331 10332 10342 10329 10312 10320 10323 10306 10299 10294 10278 10268 10259 10245 10235 10221 10205 10191 10180 10178 10173 10172 10167 10163 10162 10165 10169 10175 10180 10187 10198 10205 10208 10219 10228 10235 10239 10243 10251 10256 10264
10312 10313 10312 10309 10308 10308 10304 10299 10293 10282 10280 10267 10264 10254 10242 10232 10218 10202 10192 10182 10170 10163 10159 10156 10154 10153 10149 10148 10150 10156 10161 10169 10178 10187 10195 10203 10211 10217 10222 10227 10235 10241 10247 10252
10289 10289 10282 10293 10284 10274 10277 10274 10270 10261 10253 10243 10234 10224 10209 10202 10188 10181 10170 10161 10153 10147 10143 10142 10138 10137 10136 10136 10136 10141 10147 10154 10166 10176 10187 10195 10200 10204 10210 10215 10223 10229 10236 10240
10264 10262 10263 10257 10260 10255 10248 10245 10239 10231 10227 10222 10212 10201 10182 10171 10167 10158 10149 10143 10137 10132 10130 10126 10125 10122 10122 10125 10126 10129 10134 10145 10156 10169 10176 10186 10191 10194 10196 10201 10208 10214 10220 10227
10238 10236 10227 10239 10238 10226 10222 10216 10211 10206 10197 10191 10184 10171 10156 10153 10150 10138 10132 10127 10122 10119 10118 10115 10113 10112 10112 10114 10116 10119 10125 10132 10144 10160 10167 10174 10175 10181 10187 10191 10195 10201 10206 10211
10212 10203 10207 10219 10207 10203 10196 10186 10179 10178 10173 10163 10154 10143 10135 10139 10129 10122 10116 10113 10109 10107 10106 10103 10102 10103 10104 10105 10106 10110 10116 10125 10133 10147 10159 10163 10165 10167 10165 10174 10182 10187 10190 10194